User: anonymous   Login
Location: Unspecified
(0.0000°N, 0.0000°E)
Time: 01:05:20
(UTC+00:00)
Language:

TBA - TO BE ASSIGNED - Orbit

View from above orbital plane
View from above orbital plane
View from above satellite
View from above satellite

Ground track
Ground track

The orbit is defined by the following mean orbital elements,

1 68949U          26145.37631383 +.00000000 +00000-0 -13891-3 0 00007
2 68949  51.8735 178.3534 0019526  71.3525 288.9577 15.29742126    09
Epoch (UTC): 25 May 2026 09:01:53
Eccentricity: 0.0019526
inclination: 51.8735°
perigee height: 463 km
apogee height: 490 km
right ascension of ascending node: 178.3534°
argument of perigee: 71.3525°
revolutions per day: 15.29742126
mean anomaly at epoch: 288.9577°

The dashed part of the orbit path shows where the satellite is in the earth's shadow,  

DLR